Year,Month,Day,Hour,Minute,Value (Times are PST for windgust in km/hr)
2012,01,22,00,00,17.70
2012,01,22,00,01,19.30
2012,01,22,00,02,19.30
2012,01,22,00,03,19.30
2012,01,22,00,04,20.90
2012,01,22,00,05,16.10
2012,01,22,00,06,16.10
2012,01,22,00,07,25.70
2012,01,22,00,08,19.30
2012,01,22,00,09,16.10
2012,01,22,00,10,17.70
2012,01,22,00,11,17.70
2012,01,22,00,12,20.90
2012,01,22,00,13,17.70
2012,01,22,00,14,17.70
2012,01,22,00,15,22.50
2012,01,22,00,16,20.90
2012,01,22,00,17,25.70
2012,01,22,00,18,20.90
2012,01,22,00,19,17.70
2012,01,22,00,20,20.90
2012,01,22,00,21,22.50
2012,01,22,00,22,19.30
2012,01,22,00,23,17.70
2012,01,22,00,24,22.50
2012,01,22,00,25,20.90
2012,01,22,00,26,11.30
2012,01,22,00,27,12.90
2012,01,22,00,28,20.90
2012,01,22,00,29,19.30
2012,01,22,00,30,22.50
2012,01,22,00,31,24.20
2012,01,22,00,32,20.90
2012,01,22,00,33,22.50
2012,01,22,00,34,20.90
2012,01,22,00,35,22.50
2012,01,22,00,36,22.50
2012,01,22,00,37,24.20
2012,01,22,00,38,24.20
2012,01,22,00,39,16.10
2012,01,22,00,40,20.90
2012,01,22,00,41,17.70
2012,01,22,00,42,17.70
2012,01,22,00,43,19.30
2012,01,22,00,44,14.50
2012,01,22,00,45,19.30
2012,01,22,00,46,24.20
2012,01,22,00,47,16.10
2012,01,22,00,48,22.50
2012,01,22,00,49,20.90
2012,01,22,00,50,24.20
2012,01,22,00,51,22.50
2012,01,22,00,52,24.20
2012,01,22,00,53,25.70
2012,01,22,00,54,20.90
2012,01,22,00,55,14.50
2012,01,22,00,56,16.10
2012,01,22,00,57,9.60
2012,01,22,00,58,11.30
2012,01,22,00,59,20.90
2012,01,22,01,00,17.70
2012,01,22,01,01,16.10
2012,01,22,01,02,16.10
2012,01,22,01,03,16.10
2012,01,22,01,04,25.70
2012,01,22,01,05,24.20
2012,01,22,01,06,30.60
2012,01,22,01,07,22.50
2012,01,22,01,08,16.10
2012,01,22,01,09,27.40
2012,01,22,01,10,25.70
2012,01,22,01,11,22.50
2012,01,22,01,12,22.50
2012,01,22,01,13,20.90
2012,01,22,01,14,17.70
2012,01,22,01,15,22.50
2012,01,22,01,16,19.30
2012,01,22,01,17,14.50
2012,01,22,01,18,17.70
2012,01,22,01,19,19.30
2012,01,22,01,20,14.50
2012,01,22,01,21,16.10
2012,01,22,01,22,19.30
2012,01,22,01,23,14.50
2012,01,22,01,24,11.30
2012,01,22,01,25,22.50
2012,01,22,01,26,17.70
2012,01,22,01,27,11.30
2012,01,22,01,28,12.90
2012,01,22,01,29,6.40
2012,01,22,01,30,14.50
2012,01,22,01,31,14.50
2012,01,22,01,32,20.90
2012,01,22,01,33,9.60
2012,01,22,01,34,16.10
2012,01,22,01,35,12.90
2012,01,22,01,36,14.50
2012,01,22,01,37,16.10
2012,01,22,01,38,14.50
2012,01,22,01,39,11.30
2012,01,22,01,40,9.60
2012,01,22,01,41,16.10
2012,01,22,01,42,9.60
2012,01,22,01,43,8.10
2012,01,22,01,44,6.40
2012,01,22,01,45,9.60
2012,01,22,01,46,8.10
2012,01,22,01,47,12.90
2012,01,22,01,48,11.30
2012,01,22,01,49,11.30
2012,01,22,01,50,9.60
2012,01,22,01,51,8.10
2012,01,22,01,52,9.60
2012,01,22,01,53,9.60
2012,01,22,01,54,4.80
2012,01,22,01,55,3.20
2012,01,22,01,56,6.40
2012,01,22,01,57,4.80
2012,01,22,01,58,9.60
2012,01,22,01,59,11.30
2012,01,22,02,00,16.10
2012,01,22,02,01,11.30
2012,01,22,02,02,11.30
2012,01,22,02,03,4.80
2012,01,22,02,04,6.40
2012,01,22,02,05,9.60
2012,01,22,02,06,9.60
2012,01,22,02,07,1.60
2012,01,22,02,08,8.10
2012,01,22,02,09,1.60
2012,01,22,02,10,3.20
2012,01,22,02,11,8.10
2012,01,22,02,12,8.10
2012,01,22,02,13,3.20
2012,01,22,02,14,9.60
2012,01,22,02,15,9.60
2012,01,22,02,16,1.60
2012,01,22,02,17,6.40
2012,01,22,02,18,11.30
2012,01,22,02,19,11.30
2012,01,22,02,20,9.60
2012,01,22,02,21,4.80
2012,01,22,02,22,3.20
2012,01,22,02,23,3.20
2012,01,22,02,24,8.10
2012,01,22,02,25,9.60
2012,01,22,02,26,8.10
2012,01,22,02,27,6.40
2012,01,22,02,28,8.10
2012,01,22,02,29,6.40
2012,01,22,02,30,8.10
2012,01,22,02,31,9.60
2012,01,22,02,32,8.10
2012,01,22,02,33,1.60
2012,01,22,02,34,4.80
2012,01,22,02,35,4.80
2012,01,22,02,36,6.40
2012,01,22,02,37,4.80
2012,01,22,02,38,8.10
2012,01,22,02,39,9.60
2012,01,22,02,40,9.60
2012,01,22,02,41,4.80
2012,01,22,02,42,6.40
2012,01,22,02,43,6.40
2012,01,22,02,44,6.40
2012,01,22,02,45,4.80
2012,01,22,02,46,8.10
2012,01,22,02,47,4.80
2012,01,22,02,48,11.30
2012,01,22,02,49,11.30
2012,01,22,02,50,8.10
2012,01,22,02,51,6.40
2012,01,22,02,52,8.10
2012,01,22,02,53,9.60
2012,01,22,02,54,1.60
2012,01,22,02,55,6.40
2012,01,22,02,56,16.10
2012,01,22,02,57,14.50
2012,01,22,02,58,11.30
2012,01,22,02,59,8.10
2012,01,22,03,00,11.30
2012,01,22,03,01,12.90
2012,01,22,03,02,14.50
2012,01,22,03,03,16.10
2012,01,22,03,04,11.30
2012,01,22,03,05,8.10
2012,01,22,03,06,4.80
2012,01,22,03,07,6.40
2012,01,22,03,08,8.10
2012,01,22,03,09,9.60
2012,01,22,03,10,8.10
2012,01,22,03,11,8.10
2012,01,22,03,12,8.10
2012,01,22,03,13,4.80
2012,01,22,03,14,3.20
2012,01,22,03,15,4.80
2012,01,22,03,16,1.60
2012,01,22,03,17,1.60
2012,01,22,03,18,6.40
2012,01,22,03,19,6.40
2012,01,22,03,20,4.80
2012,01,22,03,21,6.40
2012,01,22,03,22,4.80
2012,01,22,03,23,4.80
2012,01,22,03,24,1.60
2012,01,22,03,25,8.10
2012,01,22,03,26,4.80
2012,01,22,03,27,4.80
2012,01,22,03,28,6.40
2012,01,22,03,29,3.20
2012,01,22,03,30,3.20
2012,01,22,03,31,1.60
2012,01,22,03,32,1.60
2012,01,22,03,35,8.10
2012,01,22,03,36,19.30
2012,01,22,03,37,16.10
2012,01,22,03,38,11.30
2012,01,22,03,39,9.60
2012,01,22,03,40,4.80
2012,01,22,03,41,11.30
2012,01,22,03,42,8.10
2012,01,22,03,43,9.60
2012,01,22,03,44,20.90
2012,01,22,03,45,17.70
2012,01,22,03,46,16.10
2012,01,22,03,47,8.10
2012,01,22,03,48,9.60
2012,01,22,03,49,16.10
2012,01,22,03,50,17.70
2012,01,22,03,51,11.30
2012,01,22,03,52,11.30
2012,01,22,03,53,22.50
2012,01,22,03,54,24.20
2012,01,22,03,55,27.40
2012,01,22,03,56,20.90
2012,01,22,03,57,12.90
2012,01,22,03,58,16.10
2012,01,22,03,59,16.10
2012,01,22,04,00,16.10
2012,01,22,04,01,17.70
2012,01,22,04,02,25.70
2012,01,22,04,03,17.70
2012,01,22,04,04,20.90
2012,01,22,04,05,19.30
2012,01,22,04,06,22.50
2012,01,22,04,07,20.90
2012,01,22,04,08,27.40
2012,01,22,04,09,27.40
2012,01,22,04,10,25.70
2012,01,22,04,11,24.20
2012,01,22,04,12,24.20
2012,01,22,04,13,19.30
2012,01,22,04,14,24.20
2012,01,22,04,15,24.20
2012,01,22,04,16,25.70
2012,01,22,04,17,17.70
2012,01,22,04,18,22.50
2012,01,22,04,19,20.90
2012,01,22,04,20,20.90
2012,01,22,04,21,24.20
2012,01,22,04,22,27.40
2012,01,22,04,23,14.50
2012,01,22,04,24,25.70
2012,01,22,04,25,25.70
2012,01,22,04,26,27.40
2012,01,22,04,27,22.50
2012,01,22,04,28,29.00
2012,01,22,04,29,24.20
2012,01,22,04,30,25.70
2012,01,22,04,31,19.30
2012,01,22,04,32,20.90
2012,01,22,04,33,20.90
2012,01,22,04,34,19.30
2012,01,22,04,35,24.20
2012,01,22,04,36,20.90
2012,01,22,04,37,16.10
2012,01,22,04,38,19.30
2012,01,22,04,39,27.40
2012,01,22,04,40,24.20
2012,01,22,04,41,14.50
2012,01,22,04,42,17.70
2012,01,22,04,43,22.50
2012,01,22,04,44,24.20
2012,01,22,04,45,25.70
2012,01,22,04,46,17.70
2012,01,22,04,47,19.30
2012,01,22,04,48,35.40
2012,01,22,04,49,27.40
2012,01,22,04,50,24.20
2012,01,22,04,51,19.30
2012,01,22,04,52,22.50
2012,01,22,04,53,24.20
2012,01,22,04,54,17.70
2012,01,22,04,55,11.30
2012,01,22,04,56,14.50
2012,01,22,04,57,20.90
2012,01,22,04,58,24.20
2012,01,22,04,59,30.60
2012,01,22,05,00,27.40
2012,01,22,05,01,32.20
2012,01,22,05,02,33.80
2012,01,22,05,03,29.00
2012,01,22,05,04,24.20
2012,01,22,05,05,29.00
2012,01,22,05,06,25.70
2012,01,22,05,07,43.50
2012,01,22,05,08,30.60
2012,01,22,05,09,35.40
2012,01,22,05,10,30.60
2012,01,22,05,11,30.60
2012,01,22,05,12,27.40
2012,01,22,05,13,20.90
2012,01,22,05,14,25.70
2012,01,22,05,15,30.60
2012,01,22,05,16,30.60
2012,01,22,05,17,17.70
2012,01,22,05,18,25.70
2012,01,22,05,19,29.00
2012,01,22,05,20,32.20
2012,01,22,05,21,41.80
2012,01,22,05,22,30.60
2012,01,22,05,23,25.70
2012,01,22,05,24,25.70
2012,01,22,05,25,24.20
2012,01,22,05,26,24.20
2012,01,22,05,27,25.70
2012,01,22,05,28,37.00
2012,01,22,05,29,32.20
2012,01,22,05,30,37.00
2012,01,22,05,31,27.40
2012,01,22,05,32,16.10
2012,01,22,05,33,16.10
2012,01,22,05,34,20.90
2012,01,22,05,35,19.30
2012,01,22,05,36,25.70
2012,01,22,05,37,16.10
2012,01,22,05,38,11.30
2012,01,22,05,39,12.90
2012,01,22,05,40,24.20
2012,01,22,05,41,11.30
2012,01,22,05,42,24.20
2012,01,22,05,43,24.20
2012,01,22,05,44,35.40
2012,01,22,05,45,20.90
2012,01,22,05,46,17.70
2012,01,22,05,47,29.00
2012,01,22,05,48,45.10
2012,01,22,05,49,33.80
2012,01,22,05,50,32.20
2012,01,22,05,51,30.60
2012,01,22,05,52,32.20
2012,01,22,05,53,27.40
2012,01,22,05,54,25.70
2012,01,22,05,55,46.70
2012,01,22,05,56,41.80
2012,01,22,05,57,38.60
2012,01,22,05,58,30.60
2012,01,22,05,59,38.60
2012,01,22,06,00,33.80
2012,01,22,06,01,38.60
2012,01,22,06,02,35.40
2012,01,22,06,03,25.70
2012,01,22,06,04,38.60
2012,01,22,06,05,48.30
2012,01,22,06,06,35.40
2012,01,22,06,07,32.20
2012,01,22,06,08,25.70
2012,01,22,06,09,37.00
2012,01,22,06,10,45.10
2012,01,22,06,11,37.00
2012,01,22,06,12,35.40
2012,01,22,06,13,41.80
2012,01,22,06,14,37.00
2012,01,22,06,15,33.80
2012,01,22,06,16,27.40
2012,01,22,06,17,29.00
2012,01,22,06,18,45.10
2012,01,22,06,19,35.40
2012,01,22,06,20,29.00
2012,01,22,06,21,54.70
2012,01,22,06,22,48.30
2012,01,22,06,23,32.20
2012,01,22,06,24,32.20
2012,01,22,06,25,35.40
2012,01,22,06,26,40.20
2012,01,22,06,27,33.80
2012,01,22,06,28,40.20
2012,01,22,06,29,38.60
2012,01,22,06,30,25.70
2012,01,22,06,31,38.60
2012,01,22,06,32,38.60
2012,01,22,06,33,35.40
2012,01,22,06,34,43.50
2012,01,22,06,35,37.00
2012,01,22,06,36,33.80
2012,01,22,06,37,32.20
2012,01,22,06,38,37.00
2012,01,22,06,39,48.30
2012,01,22,06,40,46.70
2012,01,22,06,41,56.30
2012,01,22,06,42,51.50
2012,01,22,06,43,49.90
2012,01,22,06,44,48.30
2012,01,22,06,45,49.90
2012,01,22,06,46,37.00
2012,01,22,06,47,35.40
2012,01,22,06,48,40.20
2012,01,22,06,49,35.40
2012,01,22,06,50,53.10
2012,01,22,06,51,35.40
2012,01,22,06,52,45.10
2012,01,22,06,53,45.10
2012,01,22,06,54,38.60
2012,01,22,06,55,40.20
2012,01,22,06,56,53.10
2012,01,22,06,57,66.00
2012,01,22,06,58,51.50
2012,01,22,06,59,45.10
2012,01,22,07,00,40.20
2012,01,22,07,01,57.90
2012,01,22,07,02,53.10
2012,01,22,07,03,49.90
2012,01,22,07,04,40.20
2012,01,22,07,05,46.70
2012,01,22,07,06,43.50
2012,01,22,07,07,38.60
2012,01,22,07,08,38.60
2012,01,22,07,09,40.20
2012,01,22,07,10,46.70
2012,01,22,07,11,53.10
2012,01,22,07,12,53.10
2012,01,22,07,13,41.80
2012,01,22,07,14,53.10
2012,01,22,07,15,37.00
2012,01,22,07,16,40.20
2012,01,22,07,17,45.10
2012,01,22,07,18,48.30
2012,01,22,07,19,45.10
2012,01,22,07,20,53.10
2012,01,22,07,21,40.20
2012,01,22,07,22,40.20
2012,01,22,07,23,33.80
2012,01,22,07,24,37.00
2012,01,22,07,25,35.40
2012,01,22,07,26,35.40
2012,01,22,07,27,41.80
2012,01,22,07,28,35.40
2012,01,22,07,29,37.00
2012,01,22,07,30,33.80
2012,01,22,07,31,49.90
2012,01,22,07,32,40.20
2012,01,22,07,33,40.20
2012,01,22,07,34,53.10
2012,01,22,07,35,41.80
2012,01,22,07,36,33.80
2012,01,22,07,37,46.70
2012,01,22,07,38,45.10
2012,01,22,07,39,41.80
2012,01,22,07,40,43.50
2012,01,22,07,41,37.00
2012,01,22,07,42,45.10
2012,01,22,07,43,43.50
2012,01,22,07,44,49.90
2012,01,22,07,45,48.30
2012,01,22,07,46,46.70
2012,01,22,07,47,38.60
2012,01,22,07,48,40.20
2012,01,22,07,49,46.70
2012,01,22,07,50,37.00
2012,01,22,07,51,27.40
2012,01,22,07,52,33.80
2012,01,22,07,53,32.20
2012,01,22,07,54,33.80
2012,01,22,07,55,48.30
2012,01,22,07,56,51.50
2012,01,22,07,57,54.70
2012,01,22,07,58,46.70
2012,01,22,07,59,37.00
2012,01,22,08,00,35.40
2012,01,22,08,01,32.20
2012,01,22,08,02,40.20
2012,01,22,08,03,38.60
2012,01,22,08,04,32.20
2012,01,22,08,05,51.50
2012,01,22,08,06,49.90
2012,01,22,08,07,40.20
2012,01,22,08,08,46.70
2012,01,22,08,09,53.10
2012,01,22,08,10,45.10
2012,01,22,08,11,35.40
2012,01,22,08,12,40.20
2012,01,22,08,13,46.70
2012,01,22,08,14,40.20
2012,01,22,08,15,43.50
2012,01,22,08,16,43.50
2012,01,22,08,17,37.00
2012,01,22,08,18,45.10
2012,01,22,08,19,29.00
2012,01,22,08,20,40.20
2012,01,22,08,21,51.50
2012,01,22,08,22,45.10
2012,01,22,08,23,41.80
2012,01,22,08,24,40.20
2012,01,22,08,25,51.50
2012,01,22,08,26,64.40
2012,01,22,08,27,53.10
2012,01,22,08,28,56.30
2012,01,22,08,29,46.70
2012,01,22,08,30,41.80
2012,01,22,08,31,46.70
2012,01,22,08,32,40.20
2012,01,22,08,33,49.90
2012,01,22,08,34,48.30
2012,01,22,08,35,49.90
2012,01,22,08,36,41.80
2012,01,22,08,37,43.50
2012,01,22,08,38,51.50
2012,01,22,08,39,46.70
2012,01,22,08,40,64.40
2012,01,22,08,41,48.30
2012,01,22,08,42,49.90
2012,01,22,08,43,54.70
2012,01,22,08,44,49.90
2012,01,22,08,45,48.30
2012,01,22,08,46,54.70
2012,01,22,08,47,43.50
2012,01,22,08,48,41.80
2012,01,22,08,49,54.70
2012,01,22,08,50,57.90
2012,01,22,08,51,49.90
2012,01,22,08,52,43.50
2012,01,22,08,53,43.50
2012,01,22,08,54,48.30
2012,01,22,08,55,43.50
2012,01,22,08,56,48.30
2012,01,22,08,57,40.20
2012,01,22,08,58,45.10
2012,01,22,08,59,46.70
2012,01,22,09,00,46.70
2012,01,22,09,01,51.50
2012,01,22,09,02,53.10
2012,01,22,09,03,35.40
2012,01,22,09,04,49.90
2012,01,22,09,05,45.10
2012,01,22,09,06,54.70
2012,01,22,09,07,46.70
2012,01,22,09,08,53.10
2012,01,22,09,09,57.90
2012,01,22,09,10,61.20
2012,01,22,09,11,57.90
2012,01,22,09,12,80.50
2012,01,22,09,13,64.40
2012,01,22,09,14,57.90
2012,01,22,09,15,51.50
2012,01,22,09,16,49.90
2012,01,22,09,17,57.90
2012,01,22,09,18,43.50
2012,01,22,09,19,59.50
2012,01,22,09,20,48.30
2012,01,22,09,21,54.70
2012,01,22,09,22,59.50
2012,01,22,09,23,54.70
2012,01,22,09,24,49.90
2012,01,22,09,25,59.50
2012,01,22,09,26,53.10
2012,01,22,09,27,49.90
2012,01,22,09,28,53.10
2012,01,22,09,29,45.10
2012,01,22,09,30,51.50
2012,01,22,09,31,54.70
2012,01,22,09,32,46.70
2012,01,22,09,33,57.90
2012,01,22,09,34,59.50
2012,01,22,09,35,62.70
2012,01,22,09,36,49.90
2012,01,22,09,37,53.10
2012,01,22,09,38,48.30
2012,01,22,09,39,62.70
2012,01,22,09,40,45.10
2012,01,22,09,41,54.70
2012,01,22,09,42,64.40
2012,01,22,09,43,48.30
2012,01,22,09,44,62.70
2012,01,22,09,45,62.70
2012,01,22,09,46,67.60
2012,01,22,09,47,54.70
2012,01,22,09,48,45.10
2012,01,22,09,49,54.70
2012,01,22,09,50,53.10
2012,01,22,09,51,57.90
2012,01,22,09,52,61.20
2012,01,22,09,53,57.90
2012,01,22,09,54,67.60
2012,01,22,09,55,48.30
2012,01,22,09,56,64.40
2012,01,22,09,57,70.80
2012,01,22,09,58,46.70
2012,01,22,09,59,66.00
2012,01,22,10,00,72.40
2012,01,22,10,01,70.80
2012,01,22,10,02,53.10
2012,01,22,10,03,61.20
2012,01,22,10,04,70.80
2012,01,22,10,05,46.70
2012,01,22,10,06,48.30
2012,01,22,10,07,48.30
2012,01,22,10,08,56.30
2012,01,22,10,09,59.50
2012,01,22,10,10,64.40
2012,01,22,10,11,64.40
2012,01,22,10,12,59.50
2012,01,22,10,13,43.50
2012,01,22,10,14,49.90
2012,01,22,10,15,59.50
2012,01,22,10,16,64.40
2012,01,22,10,17,57.90
2012,01,22,10,18,51.50
2012,01,22,10,19,48.30
2012,01,22,10,20,59.50
2012,01,22,10,21,61.20
2012,01,22,10,22,62.70
2012,01,22,10,23,53.10
2012,01,22,10,24,54.70
2012,01,22,10,25,62.70
2012,01,22,10,26,57.90
2012,01,22,10,27,61.20
2012,01,22,10,28,62.70
2012,01,22,10,29,56.30
2012,01,22,10,30,57.90
2012,01,22,10,31,64.40
2012,01,22,10,32,43.50
2012,01,22,10,33,64.40
2012,01,22,10,34,54.70
2012,01,22,10,35,64.40
2012,01,22,10,36,70.80
2012,01,22,10,37,54.70
2012,01,22,10,38,53.10
2012,01,22,10,39,64.40
2012,01,22,10,40,56.30
2012,01,22,10,41,61.20
2012,01,22,10,42,45.10
2012,01,22,10,43,40.20
2012,01,22,10,44,64.40
2012,01,22,10,45,59.50
2012,01,22,10,46,64.40
2012,01,22,10,47,66.00
2012,01,22,10,48,62.70
2012,01,22,10,49,48.30
2012,01,22,10,50,74.00
2012,01,22,10,51,77.30
2012,01,22,10,52,69.20
2012,01,22,10,53,64.40
2012,01,22,10,54,53.10
2012,01,22,10,55,59.50
2012,01,22,10,56,54.70
2012,01,22,10,57,54.70
2012,01,22,10,58,61.20
2012,01,22,10,59,57.90
2012,01,22,11,00,66.00
2012,01,22,11,01,66.00
2012,01,22,11,02,53.10
2012,01,22,11,03,57.90
2012,01,22,11,04,56.30
2012,01,22,11,05,51.50
2012,01,22,11,06,64.40
2012,01,22,11,07,64.40
2012,01,22,11,08,59.50
2012,01,22,11,09,56.30
2012,01,22,11,10,51.50
2012,01,22,11,11,43.50
2012,01,22,11,12,41.80
2012,01,22,11,13,48.30
2012,01,22,11,14,51.50
2012,01,22,11,15,51.50
2012,01,22,11,16,64.40
2012,01,22,11,17,45.10
2012,01,22,11,18,74.00
2012,01,22,11,19,64.40
2012,01,22,11,20,51.50
2012,01,22,11,21,56.30
2012,01,22,11,22,51.50
2012,01,22,11,23,35.40
2012,01,22,11,24,40.20
2012,01,22,11,25,41.80
2012,01,22,11,26,53.10
2012,01,22,11,27,35.40
2012,01,22,11,28,54.70
2012,01,22,11,29,51.50
2012,01,22,11,30,57.90
2012,01,22,11,31,57.90
2012,01,22,11,32,64.40
2012,01,22,11,33,53.10
2012,01,22,11,34,54.70
2012,01,22,11,35,48.30
2012,01,22,11,36,61.20
2012,01,22,11,37,46.70
2012,01,22,11,38,56.30
2012,01,22,11,39,53.10
2012,01,22,11,40,48.30
2012,01,22,11,41,56.30
2012,01,22,11,42,59.50
2012,01,22,11,43,49.90
2012,01,22,11,44,62.70
2012,01,22,11,45,61.20
2012,01,22,11,46,61.20
2012,01,22,11,47,33.80
2012,01,22,11,48,53.10
2012,01,22,11,49,49.90
2012,01,22,11,50,53.10
2012,01,22,11,51,64.40
2012,01,22,11,52,49.90
2012,01,22,11,53,53.10
2012,01,22,11,54,57.90
2012,01,22,11,55,54.70
2012,01,22,11,56,51.50
2012,01,22,11,57,64.40
2012,01,22,11,58,54.70
2012,01,22,11,59,46.70
2012,01,22,12,00,56.30
2012,01,22,12,01,53.10
2012,01,22,12,02,53.10
2012,01,22,12,03,46.70
2012,01,22,12,04,57.90
2012,01,22,12,05,62.70
2012,01,22,12,06,46.70
2012,01,22,12,07,49.90
2012,01,22,12,08,64.40
2012,01,22,12,09,64.40
2012,01,22,12,10,53.10
2012,01,22,12,11,54.70
2012,01,22,12,12,61.20
2012,01,22,12,13,62.70
2012,01,22,12,14,49.90
2012,01,22,12,15,48.30
2012,01,22,12,16,53.10
2012,01,22,12,17,53.10
2012,01,22,12,18,56.30
2012,01,22,12,19,59.50
2012,01,22,12,20,70.80
2012,01,22,12,21,69.20
2012,01,22,12,22,53.10
2012,01,22,12,23,48.30
2012,01,22,12,24,53.10
2012,01,22,12,25,51.50
2012,01,22,12,26,46.70
2012,01,22,12,27,59.50
2012,01,22,12,28,64.40
2012,01,22,12,29,48.30
2012,01,22,12,30,56.30
2012,01,22,12,31,51.50
2012,01,22,12,32,56.30
2012,01,22,12,33,53.10
2012,01,22,12,34,64.40
2012,01,22,12,35,57.90
2012,01,22,12,36,59.50
2012,01,22,12,37,64.40
2012,01,22,12,38,64.40
2012,01,22,12,39,62.70
2012,01,22,12,40,57.90
2012,01,22,12,41,62.70
2012,01,22,12,42,69.20
2012,01,22,12,43,59.50
2012,01,22,12,44,57.90
2012,01,22,12,45,53.10
2012,01,22,12,46,62.70
2012,01,22,12,47,61.20
2012,01,22,12,48,61.20
2012,01,22,12,49,41.80
2012,01,22,12,50,35.40
2012,01,22,12,51,48.30
2012,01,22,12,52,43.50
2012,01,22,12,53,40.20
2012,01,22,12,54,35.40
2012,01,22,12,55,49.90
2012,01,22,12,56,51.50
2012,01,22,12,57,49.90
2012,01,22,12,58,48.30
2012,01,22,12,59,30.60
2012,01,22,13,00,35.40
2012,01,22,13,01,35.40
2012,01,22,13,02,51.50
2012,01,22,13,03,51.50
2012,01,22,13,04,45.10
2012,01,22,13,05,53.10
2012,01,22,13,06,43.50
2012,01,22,13,07,41.80
2012,01,22,13,08,43.50
2012,01,22,13,09,45.10
2012,01,22,13,10,46.70
2012,01,22,13,11,53.10
2012,01,22,13,12,61.20
2012,01,22,13,13,49.90
2012,01,22,13,14,30.60
2012,01,22,13,15,51.50
2012,01,22,13,16,46.70
2012,01,22,13,17,46.70
2012,01,22,13,18,43.50
2012,01,22,13,19,35.40
2012,01,22,13,20,54.70
2012,01,22,13,21,53.10
2012,01,22,13,22,48.30
2012,01,22,13,23,48.30
2012,01,22,13,24,40.20
2012,01,22,13,25,66.00
2012,01,22,13,26,51.50
2012,01,22,13,27,61.20
2012,01,22,13,28,56.30
2012,01,22,13,29,56.30
2012,01,22,13,30,57.90
2012,01,22,13,31,59.50
2012,01,22,13,32,45.10
2012,01,22,13,33,51.50
2012,01,22,13,34,51.50
2012,01,22,13,35,43.50
2012,01,22,13,36,43.50
2012,01,22,13,37,49.90
2012,01,22,13,38,56.30
2012,01,22,13,39,56.30
2012,01,22,13,40,49.90
2012,01,22,13,41,35.40
2012,01,22,13,42,61.20
2012,01,22,13,43,62.70
2012,01,22,13,44,48.30
2012,01,22,13,45,41.80
2012,01,22,13,46,43.50
2012,01,22,13,47,43.50
2012,01,22,13,48,57.90
2012,01,22,13,49,51.50
2012,01,22,13,50,48.30
2012,01,22,13,51,45.10
2012,01,22,13,52,64.40
2012,01,22,13,53,48.30
2012,01,22,13,54,45.10
2012,01,22,13,55,53.10
2012,01,22,13,56,49.90
2012,01,22,13,57,54.70
2012,01,22,13,58,56.30
2012,01,22,13,59,64.40
2012,01,22,14,00,49.90
2012,01,22,14,01,48.30
2012,01,22,14,02,56.30
2012,01,22,14,03,40.20
2012,01,22,14,04,38.60
2012,01,22,14,05,54.70
2012,01,22,14,06,45.10
2012,01,22,14,07,41.80
2012,01,22,14,08,45.10
2012,01,22,14,09,49.90
2012,01,22,14,10,53.10
2012,01,22,14,11,53.10
2012,01,22,14,12,53.10
2012,01,22,14,13,51.50
2012,01,22,14,14,43.50
2012,01,22,14,15,51.50
2012,01,22,14,16,56.30
2012,01,22,14,17,64.40
2012,01,22,14,18,56.30
2012,01,22,14,19,48.30
2012,01,22,14,20,32.20
2012,01,22,14,21,43.50
2012,01,22,14,22,64.40
2012,01,22,14,23,38.60
2012,01,22,14,24,51.50
2012,01,22,14,25,38.60
2012,01,22,14,26,48.30
2012,01,22,14,27,38.60
2012,01,22,14,28,35.40
2012,01,22,14,29,51.50
2012,01,22,14,30,48.30
2012,01,22,14,31,32.20
2012,01,22,14,32,32.20
2012,01,22,14,33,41.80
2012,01,22,14,34,40.20
2012,01,22,14,35,46.70
2012,01,22,14,36,35.40
2012,01,22,14,37,45.10
2012,01,22,14,38,45.10
2012,01,22,14,39,40.20
2012,01,22,14,40,54.70
2012,01,22,14,41,48.30
2012,01,22,14,42,46.70
2012,01,22,14,43,56.30
2012,01,22,14,44,49.90
2012,01,22,14,45,48.30
2012,01,22,14,46,41.80
2012,01,22,14,47,48.30
2012,01,22,14,48,53.10
2012,01,22,14,49,45.10
2012,01,22,14,50,48.30
2012,01,22,14,51,62.70
2012,01,22,14,52,56.30
2012,01,22,14,53,54.70
2012,01,22,14,54,54.70
2012,01,22,14,55,49.90
2012,01,22,14,56,46.70
2012,01,22,14,57,53.10
2012,01,22,14,58,35.40
2012,01,22,14,59,53.10
2012,01,22,15,00,51.50
2012,01,22,15,01,41.80
2012,01,22,15,02,43.50
2012,01,22,15,03,45.10
2012,01,22,15,04,45.10
2012,01,22,15,05,37.00
2012,01,22,15,06,46.70
2012,01,22,15,07,43.50
2012,01,22,15,08,37.00
2012,01,22,15,09,38.60
2012,01,22,15,10,51.50
2012,01,22,15,11,46.70
2012,01,22,15,12,41.80
2012,01,22,15,13,38.60
2012,01,22,15,14,38.60
2012,01,22,15,15,40.20
2012,01,22,15,16,40.20
2012,01,22,15,17,51.50
2012,01,22,15,18,48.30
2012,01,22,15,19,43.50
2012,01,22,15,20,43.50
2012,01,22,15,21,45.10
2012,01,22,15,22,43.50
2012,01,22,15,23,43.50
2012,01,22,15,24,46.70
2012,01,22,15,25,43.50
2012,01,22,15,26,43.50
2012,01,22,15,27,33.80
2012,01,22,15,28,38.60
2012,01,22,15,29,38.60
2012,01,22,15,30,53.10
2012,01,22,15,31,54.70
2012,01,22,15,32,49.90
2012,01,22,15,33,49.90
2012,01,22,15,34,35.40
2012,01,22,15,35,40.20
2012,01,22,15,36,33.80
2012,01,22,15,37,35.40
2012,01,22,15,38,41.80
2012,01,22,15,39,46.70
2012,01,22,15,40,41.80
2012,01,22,15,41,38.60
2012,01,22,15,42,35.40
2012,01,22,15,43,43.50
2012,01,22,15,44,41.80
2012,01,22,15,45,41.80
2012,01,22,15,46,43.50
2012,01,22,15,47,30.60
2012,01,22,15,48,45.10
2012,01,22,15,49,29.00
2012,01,22,15,50,41.80
2012,01,22,15,51,40.20
2012,01,22,15,52,41.80
2012,01,22,15,53,35.40
2012,01,22,15,54,35.40
2012,01,22,15,55,37.00
2012,01,22,15,56,45.10
2012,01,22,15,57,29.00
2012,01,22,15,58,35.40
2012,01,22,15,59,33.80
2012,01,22,16,00,35.40
2012,01,22,16,01,35.40
2012,01,22,16,02,30.60
2012,01,22,16,03,32.20
2012,01,22,16,04,27.40
2012,01,22,16,05,25.70
2012,01,22,16,06,24.20
2012,01,22,16,07,24.20
2012,01,22,16,08,24.20
2012,01,22,16,09,19.30
2012,01,22,16,10,9.60
2012,01,22,16,11,9.60
2012,01,22,16,12,9.60
2012,01,22,16,13,12.90
2012,01,22,16,14,14.50
2012,01,22,16,15,9.60
2012,01,22,16,16,14.50
2012,01,22,16,17,11.30
2012,01,22,16,18,1.60
2012,01,22,16,19,1.60
2012,01,22,16,20,9.60
2012,01,22,16,21,6.40
2012,01,22,16,22,9.60
2012,01,22,16,23,6.40
2012,01,22,16,24,4.80
2012,01,22,16,25,6.40
2012,01,22,16,26,8.10
2012,01,22,16,27,14.50
2012,01,22,16,28,11.30
2012,01,22,16,29,9.60
2012,01,22,16,30,6.40
2012,01,22,16,31,22.50
2012,01,22,16,32,20.90
2012,01,22,16,33,16.10
2012,01,22,16,34,19.30
2012,01,22,16,35,17.70
2012,01,22,16,36,17.70
2012,01,22,16,37,19.30
2012,01,22,16,38,32.20
2012,01,22,16,39,32.20
2012,01,22,16,40,27.40
2012,01,22,16,41,22.50
2012,01,22,16,42,19.30
2012,01,22,16,43,17.70
2012,01,22,16,44,20.90
2012,01,22,16,45,19.30
2012,01,22,16,46,25.70
2012,01,22,16,47,17.70
2012,01,22,16,48,20.90
2012,01,22,16,49,22.50
2012,01,22,16,50,17.70
2012,01,22,16,51,20.90
2012,01,22,16,52,22.50
2012,01,22,16,53,40.20
2012,01,22,16,54,33.80
2012,01,22,16,55,20.90
2012,01,22,16,56,35.40
2012,01,22,16,57,32.20
2012,01,22,16,58,27.40
2012,01,22,16,59,33.80
2012,01,22,17,00,32.20
2012,01,22,17,01,24.20
2012,01,22,17,02,25.70
2012,01,22,17,03,25.70
2012,01,22,17,04,27.40
2012,01,22,17,05,32.20
2012,01,22,17,06,40.20
2012,01,22,17,07,38.60
2012,01,22,17,08,25.70
2012,01,22,17,09,25.70
2012,01,22,17,10,32.20
2012,01,22,17,11,27.40
2012,01,22,17,12,24.20
2012,01,22,17,13,37.00
2012,01,22,17,14,24.20
2012,01,22,17,15,32.20
2012,01,22,17,16,24.20
2012,01,22,17,17,19.30
2012,01,22,17,18,20.90
2012,01,22,17,19,17.70
2012,01,22,17,20,24.20
2012,01,22,17,21,24.20
2012,01,22,17,22,22.50
2012,01,22,17,23,25.70
2012,01,22,17,24,20.90
2012,01,22,17,25,20.90
2012,01,22,17,26,22.50